AZA806 LIRF-LLBG

Flight info

Callsign AZA806
Flight time 2h 37m
Altitude 35000
Route ROTUN DCT ENSOT DCT PEVIR DCT AGNIS DCT CRN DCT RUTOM DCT TRL DCT VANZA DCT PIKOG L609 ZUKKO
Aircraft B772/H-SDE2E3FGHIJ5LORVWXY/LB1D1

Departure

Time 2026-05-04 06:40
Airport Rome–Fiumicino Leonardo da Vinci International Airport (LIRF)

Arrival

Time 2026-05-04 09:17
Airport Ben Gurion International Airport (LLBG)
Time Latitude Longitude Altitude Speed Heading
2026-05-04 06:09 41.79653 12.24302 18 ft 0 kts 250°
2026-05-04 06:27 41.79666 12.24348 22 ft 4 kts 251°
2026-05-04 06:28 41.79671 12.24383 23 ft 4 kts 273°
2026-05-04 06:28 41.79665 12.24414 22 ft 4 kts 317°
2026-05-04 06:28 41.79654 12.24424 20 ft 0 kts 340°
2026-05-04 06:28 41.79678 12.24413 23 ft 4 kts 340°
2026-05-04 06:29 41.79703 12.24400 21 ft 4 kts 340°
2026-05-04 06:29 41.79729 12.24388 18 ft 4 kts 340°
2026-05-04 06:29 41.79754 12.24375 18 ft 4 kts 340°
2026-05-04 06:29 41.79760 12.24372 18 ft 0 kts 340°
2026-05-04 06:32 41.79771 12.24366 18 ft 4 kts 340°
2026-05-04 06:33 41.80153 12.24678 18 ft 20 kts 70°
2026-05-04 06:34 41.80200 12.24858 18 ft 21 kts 77°
2026-05-04 06:34 41.80208 12.25060 18 ft 22 kts 79°
2026-05-04 06:34 41.80257 12.25252 18 ft 22 kts 70°
2026-05-04 06:34 41.80309 12.25445 21 ft 22 kts 69°
2026-05-04 06:35 41.80362 12.25638 22 ft 22 kts 70°
2026-05-04 06:36 41.80728 12.26963 18 ft 16 kts 68°
2026-05-04 06:37 41.80761 12.27082 18 ft 14 kts 67°
2026-05-04 06:37 41.80841 12.27127 17 ft 12 kts 342°
2026-05-04 06:37 41.80925 12.27088 17 ft 14 kts 341°
2026-05-04 06:37 41.80985 12.27051 17 ft 6 kts 308°
2026-05-04 06:38 41.80985 12.27031 17 ft 1 kts 258°
2026-05-04 06:38 41.80983 12.27025 17 ft 0 kts 251°
2026-05-04 06:40 41.79197 12.19631 2107 ft 205 kts 263°
2026-05-04 06:40 41.79137 12.17611 2407 ft 227 kts 266°
2026-05-04 06:40 41.79042 12.15472 2801 ft 235 kts 252°
2026-05-04 06:40 41.78151 12.13608 3072 ft 245 kts 219°
2026-05-04 06:41 41.76807 12.12137 3517 ft 254 kts 219°
2026-05-04 06:41 41.75495 12.10561 4186 ft 258 kts 221°
2026-05-04 06:41 41.74177 12.08929 4954 ft 258 kts 221°
2026-05-04 06:41 41.72852 12.07286 5662 ft 260 kts 221°
2026-05-04 06:42 41.71515 12.05635 6329 ft 261 kts 219°
2026-05-04 06:42 41.69929 12.04488 6758 ft 266 kts 191°
2026-05-04 06:42 41.68082 12.04511 7333 ft 268 kts 169°
2026-05-04 06:44 41.58149 12.17177 10551 ft 315 kts 134°
2026-05-04 06:44 41.56642 12.19377 10676 ft 334 kts 134°
2026-05-04 06:44 41.55019 12.21737 10846 ft 355 kts 134°
2026-05-04 06:45 41.53308 12.24217 11214 ft 370 kts 134°
2026-05-04 06:45 41.51543 12.26772 11863 ft 377 kts 134°
2026-05-04 06:45 41.49755 12.29354 12714 ft 380 kts 134°
2026-05-04 06:45 41.47950 12.31955 13600 ft 383 kts 133°
2026-05-04 06:46 41.46139 12.34562 14423 ft 385 kts 134°
2026-05-04 06:46 41.44309 12.37193 15105 ft 390 kts 134°
2026-05-04 06:46 41.42448 12.39864 15694 ft 397 kts 134°
2026-05-04 06:46 41.40557 12.42576 16314 ft 401 kts 134°
2026-05-04 06:48 41.26573 12.61929 20193 ft 432 kts 136°
2026-05-04 06:48 41.24444 12.64791 20664 ft 436 kts 136°
2026-05-04 06:49 41.22331 12.67706 21151 ft 440 kts 135°
2026-05-04 06:50 41.07199 12.89231 24160 ft 470 kts 134°
2026-05-04 06:51 41.04994 12.92365 24574 ft 472 kts 134°
2026-05-04 06:51 41.02748 12.95552 24981 ft 474 kts 134°
2026-05-04 06:51 41.00480 12.98764 25389 ft 477 kts 134°
2026-05-04 06:51 40.98210 13.01977 25779 ft 480 kts 134°
2026-05-04 06:52 40.95915 13.05220 26146 ft 483 kts 134°
2026-05-04 06:52 40.93616 13.08466 26520 ft 485 kts 134°
2026-05-04 06:52 40.91299 13.11734 26906 ft 488 kts 134°
2026-05-04 06:52 40.88968 13.15019 27261 ft 491 kts 134°
2026-05-04 06:53 40.86620 13.18324 27573 ft 495 kts 134°
2026-05-04 06:53 40.84254 13.21650 27923 ft 497 kts 134°
2026-05-04 06:53 40.81878 13.24987 28290 ft 499 kts 134°
2026-05-04 06:53 40.79496 13.28328 28646 ft 501 kts 134°
2026-05-04 06:54 40.77094 13.31693 28939 ft 504 kts 134°
2026-05-04 06:54 40.74683 13.35068 29211 ft 507 kts 134°
2026-05-04 06:54 40.72253 13.38464 29501 ft 509 kts 134°
2026-05-04 06:54 40.69813 13.41871 29795 ft 511 kts 135°
2026-05-04 06:55 40.67367 13.45284 30065 ft 513 kts 135°
2026-05-04 06:55 40.64941 13.48664 30301 ft 515 kts 135°
2026-05-04 06:55 40.62473 13.52099 30536 ft 517 kts 135°
2026-05-04 06:55 40.59998 13.55539 30769 ft 517 kts 135°
2026-05-04 06:56 40.57521 13.58979 30984 ft 518 kts 135°
2026-05-04 06:57 40.40951 13.81886 32727 ft 516 kts 135°
2026-05-04 06:58 40.38477 13.85292 33018 ft 515 kts 135°
2026-05-04 06:58 40.36008 13.88686 33294 ft 514 kts 135°
2026-05-04 06:58 40.33538 13.92080 33555 ft 514 kts 135°
2026-05-04 06:58 40.31071 13.95465 33847 ft 513 kts 135°
2026-05-04 06:59 40.28605 13.98851 34132 ft 513 kts 135°
2026-05-04 06:59 40.26267 14.02378 34363 ft 513 kts 130°
2026-05-04 06:59 40.24018 14.06018 34569 ft 513 kts 130°
2026-05-04 06:59 40.21785 14.09660 34764 ft 514 kts 130°
2026-05-04 07:01 40.05926 14.35192 35191 ft 516 kts 130°
2026-05-04 07:01 40.03657 14.38816 35192 ft 515 kts 130°
2026-05-04 07:02 39.99125 14.46042 35192 ft 513 kts 130°
2026-05-04 07:02 39.94603 14.53236 35199 ft 512 kts 130°
2026-05-04 07:03 39.90084 14.60410 35197 ft 513 kts 130°
2026-05-04 07:03 39.85581 14.67544 35196 ft 514 kts 130°
2026-05-04 07:04 39.81254 14.74960 35195 ft 516 kts 123°
2026-05-04 07:04 39.77940 14.83250 35195 ft 518 kts 113°
2026-05-04 07:05 39.75117 14.91863 35199 ft 519 kts 113°
2026-05-04 07:05 39.72257 15.00498 35197 ft 520 kts 113°
2026-05-04 07:06 39.67901 15.13417 35199 ft 521 kts 114°
2026-05-04 07:07 39.64973 15.22035 35205 ft 522 kts 114°
2026-05-04 07:09 39.53202 15.56464 35217 ft 523 kts 114°
2026-05-04 07:09 39.50238 15.65068 35224 ft 523 kts 114°
2026-05-04 07:10 39.47270 15.73660 35223 ft 523 kts 114°
2026-05-04 07:12 39.35317 16.08003 35236 ft 525 kts 113°
2026-05-04 07:12 39.32318 16.16559 35227 ft 526 kts 113°
2026-05-04 07:13 39.29293 16.25163 35235 ft 526 kts 114°
2026-05-04 07:13 39.26258 16.33769 35231 ft 527 kts 114°
2026-05-04 07:14 39.18622 16.55308 35222 ft 529 kts 113°
2026-05-04 07:15 39.15552 16.63922 35209 ft 529 kts 114°
2026-05-04 07:15 39.12491 16.72490 35216 ft 530 kts 113°
2026-05-04 07:16 39.09403 16.81105 35207 ft 530 kts 113°
2026-05-04 07:16 39.06304 16.89728 35169 ft 531 kts 113°
2026-05-04 07:17 39.03196 16.98353 35162 ft 531 kts 113°
2026-05-04 07:17 39.00089 17.06987 35163 ft 531 kts 112°
2026-05-04 07:18 38.97656 17.15922 35154 ft 530 kts 104°
2026-05-04 07:18 38.95538 17.24991 35162 ft 530 kts 104°
2026-05-04 07:19 38.93388 17.34066 35168 ft 530 kts 105°
2026-05-04 07:19 38.91212 17.43068 35187 ft 531 kts 104°
2026-05-04 07:20 38.88999 17.52136 35178 ft 532 kts 104°
2026-05-04 07:20 38.86776 17.61215 35172 ft 532 kts 104°
2026-05-04 07:22 38.77832 17.97458 35166 ft 535 kts 104°
2026-05-04 07:23 38.75568 18.06548 35171 ft 535 kts 104°
2026-05-04 07:23 38.73297 18.15629 35174 ft 535 kts 105°
2026-05-04 07:24 38.71020 18.24706 35169 ft 535 kts 105°
2026-05-04 07:24 38.68734 18.33779 35168 ft 535 kts 105°
2026-05-04 07:26 38.59526 18.70003 35173 ft 537 kts 105°
2026-05-04 07:27 38.57198 18.79077 35201 ft 537 kts 104°
2026-05-04 07:27 38.54859 18.88162 35174 ft 538 kts 104°
2026-05-04 07:28 38.52514 18.97243 35175 ft 539 kts 104°
2026-05-04 07:28 38.49914 19.06247 35181 ft 541 kts 108°
2026-05-04 07:29 38.47072 19.15142 35182 ft 542 kts 109°
2026-05-04 07:29 38.44209 19.24043 35171 ft 542 kts 109°
2026-05-04 07:30 38.41384 19.32890 35170 ft 542 kts 108°
2026-05-04 07:30 38.38546 19.41800 35160 ft 542 kts 109°
2026-05-04 07:31 38.35702 19.50707 35189 ft 543 kts 108°
2026-05-04 07:33 38.24222 19.86337 35187 ft 543 kts 109°
2026-05-04 07:33 38.21354 19.95169 35176 ft 543 kts 109°
2026-05-04 07:34 38.18463 20.04045 35176 ft 543 kts 109°
2026-05-04 07:34 38.15571 20.12894 35178 ft 542 kts 109°
2026-05-04 07:35 38.12671 20.21744 35191 ft 542 kts 109°
2026-05-04 07:35 38.09764 20.30585 35186 ft 542 kts 109°
2026-05-04 07:36 38.06854 20.39410 35182 ft 541 kts 109°
2026-05-04 07:38 37.95171 20.74567 35188 ft 542 kts 109°
2026-05-04 07:38 37.92225 20.83365 35218 ft 543 kts 109°
2026-05-04 07:39 37.89264 20.92182 35177 ft 544 kts 109°
2026-05-04 07:39 37.86296 21.00994 35187 ft 544 kts 109°
2026-05-04 07:40 37.83316 21.09813 35189 ft 545 kts 109°
2026-05-04 07:40 37.80348 21.18569 35198 ft 546 kts 109°
2026-05-04 07:41 37.77347 21.27397 35188 ft 547 kts 109°
2026-05-04 07:41 37.74333 21.36239 35194 ft 547 kts 109°
2026-05-04 07:42 37.71312 21.45071 35200 ft 547 kts 109°
2026-05-04 07:42 37.68794 21.52415 35197 ft 548 kts 109°
2026-05-04 07:43 37.65760 21.61238 35189 ft 548 kts 110°
2026-05-04 07:43 37.62722 21.70047 35198 ft 547 kts 110°
2026-05-04 07:44 37.59678 21.78851 35191 ft 547 kts 110°
2026-05-04 07:44 37.56626 21.87648 35197 ft 548 kts 109°
2026-05-04 07:45 37.53564 21.96448 35198 ft 549 kts 110°
2026-05-04 07:45 37.50490 22.05255 35182 ft 548 kts 110°
2026-05-04 07:46 37.47419 22.14033 35233 ft 548 kts 110°
2026-05-04 07:46 37.44349 22.22780 35185 ft 550 kts 110°
2026-05-04 07:47 37.41246 22.31599 35187 ft 551 kts 110°
2026-05-04 07:49 37.30180 22.67578 35166 ft 554 kts 107°
2026-05-04 07:49 37.27404 22.76624 35165 ft 555 kts 107°
2026-05-04 07:50 37.24635 22.85608 35171 ft 555 kts 107°
2026-05-04 07:50 37.21841 22.94653 35159 ft 554 kts 107°
2026-05-04 07:51 37.19053 23.03655 35169 ft 553 kts 107°
2026-05-04 07:51 37.16264 23.12633 35192 ft 552 kts 107°
2026-05-04 07:52 37.13473 23.21589 35172 ft 551 kts 107°
2026-05-04 07:52 37.10678 23.30528 35173 ft 550 kts 107°
2026-05-04 07:54 36.99456 23.66148 35177 ft 550 kts 108°
2026-05-04 07:55 36.96652 23.74979 35213 ft 550 kts 108°
2026-05-04 07:55 36.93814 23.83892 35182 ft 551 kts 108°
2026-05-04 07:56 36.90973 23.92783 35176 ft 551 kts 108°
2026-05-04 07:56 36.88121 24.01681 35171 ft 550 kts 108°
2026-05-04 07:57 36.85267 24.10557 35189 ft 550 kts 108°
2026-05-04 07:57 36.82427 24.19366 35174 ft 550 kts 108°
2026-05-04 07:58 36.79546 24.28273 35172 ft 550 kts 108°
2026-05-04 07:58 36.76677 24.37117 35175 ft 550 kts 108°
2026-05-04 07:59 36.73816 24.45913 35177 ft 551 kts 109°
2026-05-04 07:59 36.70924 24.54772 35171 ft 551 kts 109°
2026-05-04 08:00 36.68027 24.63622 35168 ft 552 kts 109°
2026-05-04 08:02 36.56354 24.99012 35165 ft 554 kts 109°
2026-05-04 08:02 36.53412 25.07867 35163 ft 554 kts 109°
2026-05-04 08:03 36.50459 25.16727 35158 ft 554 kts 109°
2026-05-04 08:03 36.47500 25.25578 35152 ft 554 kts 109°
2026-05-04 08:04 36.44531 25.34431 35153 ft 554 kts 110°
2026-05-04 08:04 36.41577 25.43216 35136 ft 555 kts 110°
2026-05-04 08:05 36.38593 25.52065 35129 ft 555 kts 110°
2026-05-04 08:05 36.35609 25.60885 35132 ft 555 kts 110°
2026-05-04 08:06 36.32614 25.69715 35140 ft 555 kts 110°
2026-05-04 08:06 36.29609 25.78545 35130 ft 555 kts 110°
2026-05-04 08:08 36.17545 26.13744 35108 ft 555 kts 111°
2026-05-04 08:11 36.03889 26.53098 35064 ft 553 kts 111°
2026-05-04 08:11 35.99302 26.66207 35084 ft 556 kts 112°
2026-05-04 08:12 35.96217 26.74993 35074 ft 558 kts 112°
2026-05-04 08:12 35.93121 26.83783 35074 ft 559 kts 112°
2026-05-04 08:13 35.90014 26.92577 35080 ft 559 kts 112°
2026-05-04 08:13 35.86899 27.01369 35062 ft 559 kts 112°
2026-05-04 08:14 35.83782 27.10144 35060 ft 558 kts 112°
2026-05-04 08:16 35.71316 27.44988 35043 ft 555 kts 113°
2026-05-04 08:16 35.68187 27.53677 35048 ft 555 kts 113°
2026-05-04 08:17 35.65052 27.62354 35031 ft 554 kts 113°
2026-05-04 08:17 35.61919 27.71002 35026 ft 554 kts 113°
2026-05-04 08:19 35.49346 28.05473 35012 ft 553 kts 114°
2026-05-04 08:20 35.46185 28.14082 35013 ft 553 kts 114°
2026-05-04 08:20 35.43015 28.22689 35001 ft 554 kts 114°
2026-05-04 08:21 35.39857 28.31243 34997 ft 554 kts 114°
2026-05-04 08:21 35.36674 28.39838 35000 ft 553 kts 114°
2026-05-04 08:22 35.33487 28.48425 34972 ft 554 kts 114°
2026-05-04 08:24 35.20626 28.82836 34971 ft 558 kts 115°
2026-05-04 08:24 35.17400 28.91409 34970 ft 559 kts 115°
2026-05-04 08:25 35.14142 29.00045 34978 ft 560 kts 115°
2026-05-04 08:25 35.10872 29.08689 34966 ft 560 kts 115°
2026-05-04 08:27 34.97766 29.43107 34946 ft 557 kts 116°
2026-05-04 08:28 34.94488 29.51660 34944 ft 557 kts 116°
2026-05-04 08:28 34.91221 29.60160 34933 ft 556 kts 116°
2026-05-04 08:29 34.87930 29.68702 34946 ft 556 kts 116°
2026-05-04 08:31 34.75182 30.01345 34943 ft 557 kts 121°
2026-05-04 08:33 34.58827 30.33296 34941 ft 558 kts 124°
2026-05-04 08:35 34.42372 30.65340 34934 ft 561 kts 125°
2026-05-04 08:35 34.38227 30.73360 34934 ft 561 kts 125°
2026-05-04 08:37 34.23713 31.01305 34932 ft 559 kts 126°
2026-05-04 08:38 34.19565 31.09250 34935 ft 559 kts 126°
2026-05-04 08:38 34.15416 31.17180 34937 ft 559 kts 126°
2026-05-04 08:40 33.98796 31.48773 34942 ft 558 kts 126°
2026-05-04 08:41 33.94624 31.56661 34940 ft 558 kts 127°
2026-05-04 08:41 33.90451 31.64534 34944 ft 558 kts 127°
2026-05-04 08:42 33.86271 31.72401 34945 ft 558 kts 127°
2026-05-04 08:42 33.82091 31.80252 34940 ft 557 kts 127°
2026-05-04 08:43 33.77906 31.88096 34949 ft 557 kts 127°
2026-05-04 08:43 33.73720 31.95925 34947 ft 557 kts 127°
2026-05-04 08:44 33.69528 32.03747 34902 ft 557 kts 128°
2026-05-04 08:46 33.52669 32.35035 34949 ft 561 kts 128°
2026-05-04 08:46 33.48416 32.42890 34967 ft 562 kts 129°
2026-05-04 08:47 33.44157 32.50737 34967 ft 562 kts 129°
2026-05-04 08:47 33.39895 32.58571 34975 ft 561 kts 129°
2026-05-04 08:48 33.35659 32.66342 34969 ft 560 kts 129°
2026-05-04 08:48 33.31400 32.74140 34977 ft 559 kts 129°
2026-05-04 08:49 33.27140 32.81921 34988 ft 559 kts 129°
2026-05-04 08:50 33.14191 33.05479 30254 ft 561 kts 131°
2026-05-04 08:50 33.12059 33.09354 29505 ft 554 kts 131°
2026-05-04 08:51 33.09954 33.13173 28781 ft 547 kts 131°
2026-05-04 08:51 33.07874 33.16938 28091 ft 540 kts 131°
2026-05-04 08:51 33.05823 33.20644 27476 ft 532 kts 131°
2026-05-04 08:51 33.03789 33.24314 26838 ft 526 kts 131°
2026-05-04 08:52 33.01779 33.27934 26191 ft 521 kts 131°
2026-05-04 08:52 32.99787 33.31518 25565 ft 517 kts 131°
2026-05-04 08:52 32.97832 33.35032 24952 ft 513 kts 131°
2026-05-04 08:52 32.95866 33.38562 24334 ft 510 kts 131°
2026-05-04 08:53 32.93910 33.42073 23705 ft 507 kts 131°
2026-05-04 08:54 32.80292 33.65403 19325 ft 464 kts 139°
2026-05-04 08:55 32.78041 33.68117 18742 ft 458 kts 139°
2026-05-04 08:55 32.75821 33.70799 18132 ft 453 kts 139°
2026-05-04 08:55 32.73628 33.73475 17483 ft 449 kts 140°
2026-05-04 08:55 32.71469 33.76124 16941 ft 443 kts 140°
2026-05-04 08:57 32.57007 33.93909 13156 ft 416 kts 138°
2026-05-04 09:01 32.41573 34.18554 10297 ft 347 kts 103°
2026-05-04 09:03 32.41230 34.20511 10078 ft 344 kts 103°
2026-05-04 09:03 32.40739 34.23252 9888 ft 335 kts 104°
2026-05-04 09:03 32.40261 34.25910 9717 ft 323 kts 104°
2026-05-04 09:03 32.39803 34.28452 9344 ft 313 kts 104°
2026-05-04 09:04 32.39345 34.30986 8914 ft 315 kts 104°
2026-05-04 09:04 32.38895 34.33476 8862 ft 305 kts 104°
2026-05-04 09:04 32.38455 34.35912 8764 ft 302 kts 104°
2026-05-04 09:04 32.38021 34.38307 8645 ft 301 kts 104°
2026-05-04 09:05 32.37576 34.40756 8541 ft 301 kts 104°
2026-05-04 09:05 32.37143 34.43145 8436 ft 301 kts 104°
2026-05-04 09:05 32.36703 34.45566 8315 ft 301 kts 104°
2026-05-04 09:05 32.36262 34.47992 8184 ft 301 kts 105°
2026-05-04 09:06 32.35822 34.50414 8070 ft 300 kts 105°
2026-05-04 09:07 32.30438 34.66220 6575 ft 294 kts 117°
2026-05-04 09:08 32.29638 34.68422 6351 ft 289 kts 117°
2026-05-04 09:08 32.28851 34.70587 6130 ft 285 kts 117°
2026-05-04 09:08 32.28084 34.72692 5946 ft 284 kts 117°
2026-05-04 09:08 32.27293 34.74859 5710 ft 283 kts 117°
2026-05-04 09:09 32.26511 34.76999 5524 ft 284 kts 117°
2026-05-04 09:09 32.25738 34.79116 5299 ft 284 kts 117°
2026-05-04 09:09 32.25006 34.81286 5080 ft 284 kts 112°
2026-05-04 09:09 32.24438 34.83524 4889 ft 283 kts 110°
2026-05-04 09:10 32.23897 34.85747 4668 ft 280 kts 110°
2026-05-04 09:10 32.23346 34.87941 4443 ft 276 kts 110°
2026-05-04 09:10 32.22792 34.90101 4237 ft 272 kts 110°
2026-05-04 09:10 32.22245 34.92223 4013 ft 268 kts 111°
2026-05-04 09:11 32.21703 34.94310 3832 ft 263 kts 111°
2026-05-04 09:11 32.21168 34.96347 3627 ft 256 kts 114°
2026-05-04 09:11 32.20313 34.98047 3424 ft 229 kts 147°
2026-05-04 09:11 32.18998 34.98886 3321 ft 207 kts 172°
2026-05-04 09:12 32.17613 34.99190 3180 ft 199 kts 187°
2026-05-04 09:12 32.16260 34.99052 3002 ft 189 kts 205°
2026-05-04 09:14 32.08353 34.94266 1568 ft 158 kts 214°
2026-05-04 09:14 32.07431 34.93666 1389 ft 147 kts 215°
2026-05-04 09:14 32.06570 34.93107 1191 ft 134 kts 213°
2026-05-04 09:14 32.05791 34.92600 1031 ft 126 kts 215°
2026-05-04 09:15 32.05004 34.92087 882 ft 135 kts 212°
2026-05-04 09:15 32.04168 34.91547 691 ft 137 kts 212°
2026-05-04 09:15 32.03332 34.91009 509 ft 136 kts 212°
2026-05-04 09:15 32.02518 34.90479 351 ft 132 kts 211°
2026-05-04 09:17 32.00118 34.88598 120 ft 16 kts 301°
2026-05-04 09:18 32.00176 34.88486 120 ft 16 kts 301°
2026-05-04 09:18 32.00235 34.88374 120 ft 16 kts 302°
2026-05-04 09:18 32.00293 34.88262 120 ft 16 kts 300°
2026-05-04 09:18 32.00352 34.88151 121 ft 16 kts 301°
2026-05-04 09:19 32.00408 34.88037 120 ft 16 kts 300°
2026-05-04 09:19 32.00466 34.87927 120 ft 16 kts 302°
2026-05-04 09:19 32.00525 34.87816 119 ft 16 kts 302°
2026-05-04 09:19 32.00567 34.87720 122 ft 11 kts 277°
2026-05-04 09:20 32.00542 34.87632 120 ft 11 kts 263°
2026-05-04 09:20 32.00547 34.87573 122 ft 2 kts 278°
2026-05-04 09:20 32.00550 34.87556 121 ft 2 kts 279°
2026-05-04 09:20 32.00552 34.87543 121 ft 1 kts 279°
2026-05-04 09:21 32.00552 34.87537 121 ft 0 kts 279°
2026-05-04 09:21 32.00553 34.87536 121 ft 0 kts 279°